Location: Bluff Heights
(33.7692°N, 118.1592°W)
Time: 00:27:01
(UTC+00:00)

Tiros 1 - Pass Details

Date: 25 July 2021
Orbit: 630 x 663 km, 48.4° (Epoch: 20 September)

Event Time Altitude Azimuth Distance (km) Brightness Sun altitude
Rises 02:07:15 0° 181° (S) 2,968 10.4 9.2°
Reaches altitude 10° 02:10:57 10° 152° (SSE) 2,056 9.3 8.4°
Maximum altitude 02:12:53 12° 128° (SE) 1,898 9.0 8.0°
Drops below altitude 10° 02:14:49 10° 103° (ESE) 2,053 9.1 7.7°
Sets 02:18:30 0° 74° (ENE) 2,959 10.0 6.9°
